This demonstration page uses our WeatherBlox Daily Observations layout. Learn more.

Left ArrowRight Arrow

30.21309, -93.2044

Hourly Observations for August 1, 2020

Temp ( °F °C ) Dew Point ( °F °C ) Humidity (%) Winds ( mph kmh ) Pressure ( in mb ) Visibility ( mi km ) Precip ( " mm )
12:15 am 00:15 Clear 74 23.3 72 22.1 93 93 Calm 29.95 1014 10 16 0.00 0.00
12:35 am 00:35 Clear 74 23.2 72 22.2 94 94 SSE 3 6 29.95 1014 10 16 0.00 0.00
12:55 am 00:55 Clear 73 23 72 22.3 96 96 Calm 29.94 1014 10 16 0.00 0.00
1:15 am 01:15 Clear 74 23.2 72 22.3 95 95 Calm 29.93 1014 10 16 0.00 0.00
1:35 am 01:35 Partly Cloudy 73 23 72 22.4 96 96 Calm 29.93 1014 10 16 0.00 0.00
1:55 am 01:55 Partly Cloudy 74 23.1 73 22.5 96 96 Calm 29.93 1014 10 16 0.00 0.00
2:15 am 02:15 Partly Cloudy 74 23.4 73 22.6 95 95 Calm 29.93 1014 10 16 0.00 0.00
2:35 am 02:35 Clear with Nearby Thunderstorms 74 23.4 73 22.7 96 96 Calm 29.93 1014 10 16 0.00 0.00
2:55 am 02:55 Partly Cloudy 75 23.7 73 22.9 95 95 Calm 29.93 1014 10 16 0.00 0.00
3:15 am 03:15 Mostly Cloudy 75 23.8 74 23.1 96 96 SE 3 6 29.91 1013 10 16 0.00 0.00
3:35 am 03:35 Partly Cloudy with Nearby Thunderstorms 74 23.6 74 23.1 97 97 SSE 5 7 29.91 1013 10 16 0.00 0.00
3:55 am 03:55 Partly Cloudy with Nearby Thunderstorms 75 23.7 74 23.2 97 97 E 6 9 29.91 1013 10 16 0.00 0.00
4:15 am 04:15 Mostly Cloudy with Nearby Thunderstorms 75 23.8 74 23.4 98 98 Calm 29.92 1013 10 16 0.00 0.00
4:35 am 04:35 Mostly Cloudy 76 24.2 75 23.8 98 98 Calm 29.92 1013 10 16 0.00 0.00
4:55 am 04:55 Mostly Cloudy with Nearby Thunderstorms 76 24.7 76 24.3 98 98 Calm 29.93 1014 10 16 0.00 0.00
5:15 am 05:15 Partly Cloudy with Thunderstorms 76 24.7 75 24.1 96 96 NNW 3 6 29.93 1014 10 16 0.00 0.00
5:35 am 05:35 Mostly Cloudy with Nearby Thunderstorms 77 25.1 76 24.2 95 95 NE 5 7 29.93 1014 10 16 0.00 0.00
6:00 am 06:00 Mostly Cloudy with Thunderstorms 75 24 73 23 94 94 NNE 8 13 29.94 1014 10 16 0.00 0.00
6:45 am 06:45 Mostly Cloudy with Thunderstorms 75 24 73 23 94 94 NNE 8 13 29.96 1015 5 8 0.00 0.00
7:45 am 07:45 Mostly Cloudy with Thunderstorms 73 23 72 22 94 94 ENE 6 9 29.98 1015 5 8 0.00 0.00
8:55 am 08:55 Mostly Cloudy with Strong Thunderstorms 72 22 72 22 100 100 NW 8 13 30.02 1017 2 3 0.00 0.00
9:45 am 09:45 Mostly Cloudy with Thunderstorms 72 22 72 22 100 100 ESE 9 15 30.00 1016 6 10 0.00 0.00
10:52 am 10:52 Mostly Cloudy 72 22 72 22 100 100 SSE 8 13 30.03 1017 10 16 0.00 0.00
11:45 am 11:45 Mostly Cloudy 77 25 73 23 89 89 S 7 11 30.02 1017 10 16 0.00 0.00
12:49 pm 12:49 Mostly Cloudy 81 27 73 23 79 79 SW 8 13 30.01 1016 10 16 0.00 0.00
1:52 pm 13:52 Partly Cloudy 82 28 73 23 74 74 SW 10 17 29.98 1015 10 16 0.00 0.00
2:55 pm 14:55 Partly Cloudy 84 29 73 23 70 70 S 3 6 29.92 1013 10 16 0.00 0.00
3:45 pm 15:45 Partly Cloudy 82 28 73 23 74 74 NW 6 9 29.93 1014 10 16 0.00 0.00
4:45 pm 16:45 Mostly Cloudy 84 29 75 24 74 74 NW 5 7 29.94 1014 10 16 0.00 0.00
5:45 pm 17:45 Mostly Cloudy 82 28 75 24 79 79 WNW 5 7 29.94 1014 10 16 0.00 0.00
6:45 pm 18:45 Mostly Cloudy 82 28 75 24 79 79 NNW 5 7 29.93 1014 10 16 0.00 0.00
7:45 pm 19:45 Partly Cloudy 81 27 75 24 84 84 Calm 29.93 1014 10 16 0.00 0.00
8:50 pm 20:50 Mostly Clear 79 26 75 24 89 89 Calm 29.94 1014 10 16 0.00 0.00
9:45 pm 21:45 Mostly Clear 77 25 75 24 94 94 Calm 29.94 1014 10 16 0.00 0.00
10:15 pm 22:15 Clear 76 24.7 75 23.8 95 95 Calm 29.96 1015 10 16 0.00 0.00
10:35 pm 22:35 Clear 76 24.3 74 23.6 96 96 SSE 3 6 29.96 1015 10 16 0.00 0.00
10:55 pm 22:55 Clear 76 24.6 75 23.9 96 96 S 5 7 29.96 1015 10 16 0.00 0.00
11:15 pm 23:15 Clear 77 24.9 75 23.8 94 94 Calm 29.97 1015 10 16 0.00 0.00
11:35 pm 23:35 Clear 76 24.2 74 23.6 96 96 Calm 29.97 1015 10 16 0.00 0.00
11:55 pm 23:55 Clear 76 24.5 75 23.7 95 95 Calm 29.97 1015 10 16 0.00 0.00

Powered by AerisWeather